Overview Statistics Trail Chart Weather Telemetry Raw packets
 

This is the latest recevied weather packets stored in our database for station/object KB9HUO. If no packets are shown the sender has not sent any weather packets the latest 10 day(s).

<< 7 8 9 10 11 12 13 >>
Time Temp. Humidity Pressure Rain* Wind** Luminosity Snow
1788612724 24.44° C 98% 1015.6 hPa 0 mm - 39 W/m² -
1788612433 24.44° C 98% 1015.6 hPa 0 mm - 34 W/m² -
1788612116 24.44° C 98% 1015.8 hPa 0 mm - 28 W/m² -
1788611811 23.89° C 98% 1015.9 hPa 0 mm - 28 W/m² -
1788611508 23.89° C 98% 1015.7 hPa 0 mm - 27 W/m² -
1788611208 23.89° C 98% 1015.5 hPa 0 mm - 25 W/m² -
1788610903 23.89° C 98% 1015.6 hPa 0 mm - 24 W/m² -
1788610602 23.33° C 98% 1015.3 hPa 0 mm - 23 W/m² -
1788610298 23.33° C 98% 1015.4 hPa 0 mm - 21 W/m² -
1788609997 23.33° C 98% 1015.2 hPa 0 mm - 20 W/m² -
1788609692 23.33° C 98% 1015.5 hPa 0 mm - 18 W/m² -
1788609391 23.33° C 98% 1015.5 hPa 0 mm - 16 W/m² -
1788609087 23.33° C 98% 1015.5 hPa 0 mm - 14 W/m² -
1788608786 23.33° C 98% 1015.5 hPa 0 mm - 10 W/m² -
1788608485 23.33° C 98% 1015.6 hPa 0 mm - 7 W/m² -
1788608180 23.33° C 98% 1015.3 hPa 0 mm - 4 W/m² -
1788607876 23.33° C 98% 1015.4 hPa 0 mm - 3 W/m² -
1788607575 23.33° C 98% 1015.5 hPa 0 mm - 2 W/m² -
1788607272 23.33° C 98% 1015.3 hPa 0 mm - 1 W/m² -
1788606966 23.33° C 98% 1015.3 hPa 0 mm - 1 W/m² -
1788606665 23.33° C 98% 1015.3 hPa 0 mm - 0 W/m² -
1788606364 23.33° C 98% 1015.2 hPa 0 mm - 0 W/m² -
1788606078 23.33° C 97% 1014.9 hPa 1.27 mm - 0 W/m² -
1788605754 23.33° C 97% 1014.9 hPa 1.27 mm - 0 W/m² -
1788605453 23.33° C 97% 1014.5 hPa 0 mm - 0 W/m² -

* Rain latest hour (hover to see other rain measurements)
** Current wind speed in m/s (hover to see current wind gust speed)